When you browse on this site, cookies collect data to enhance your experience and personalize the content and advertising you see.
Visit our Privacy Policy to learn more. By continuing to use the site, you agree to this use of cookies and data.
  • Em Portugal
  • Lista de países
  • Para 7 dias
  • Temperatura da água
  • Mapas de satélite
  • Mapa do tempo
  • Widgets de tempo
  • user-avatar
    Iniciar Sessão

    Previsão horária em Sinemorec

    Hoje, 10 Dezembro, Segunda-feira

    Tempo Temperatura Precipitação Vento Pressão Humidade
    00:00 +7°C° 0 mm 2 m/s 753 mmHg 94%
    01:00 +6°C° 0 mm 2 m/s 753 mmHg 93%
    02:00 +6°C° 0 mm 2 m/s 753 mmHg 93%
    03:00 +6°C° 0 mm 2 m/s 753 mmHg 90%
    04:00 +6°C° 0 mm 2 m/s 753 mmHg 88%
    05:00 +5°C° 0 mm 2 m/s 753 mmHg 86%
    06:00 +6°C° 0 mm 2 m/s 753 mmHg 88%
    07:00 +7°C° 0 mm 1 m/s 752 mmHg 89%
    08:00 +7°C° 0 mm 1 m/s 752 mmHg 90%
    09:00 +8°C° 0 mm 1 m/s 752 mmHg 88%
    10:00 +10°C° 0 mm 1 m/s 752 mmHg 86%
    11:00 +11°C° 0 mm 1 m/s 752 mmHg 84%
    12:00 +10°C° 0.1 mm 2 m/s 752 mmHg 85%
    13:00 +10°C° 0.1 mm 3 m/s 751 mmHg 85%
    14:00 +10°C° 0.1 mm 4 m/s 750 mmHg 86%
    15:00 +8°C° 1.4 mm 5 m/s 750 mmHg 85%
    16:00 +7°C° 1.4 mm 6 m/s 750 mmHg 84%
    17:00 +6°C° 1.4 mm 7 m/s 750 mmHg 84%
    18:00 +5°C° 1.6 mm 8 m/s 750 mmHg 83%
    19:00 +5°C° 1.6 mm 8 m/s 750 mmHg 82%
    20:00 +5°C° 1.6 mm 9 m/s 750 mmHg 81%
    21:00 +5°C° 1.2 mm 9 m/s 750 mmHg 81%
    22:00 +3°C° 1.2 mm 9 m/s 750 mmHg 81%
    23:00 +3°C° 1.2 mm 9 m/s 750 mmHg 81%

    Amanhã, 11 Dezembro, Terça-feira

    Tempo Temperatura Precipitação Vento Pressão Humidade
    00:00 +3°C° 0.9 mm 10 m/s 750 mmHg 82%
    01:00 +3°C° 0.9 mm 10 m/s 751 mmHg 82%
    02:00 +3°C° 0.9 mm 10 m/s 751 mmHg 83%
    03:00 +2°C° 0.7 mm 10 m/s 751 mmHg 83%
    04:00 +2°C° 0.7 mm 10 m/s 752 mmHg 82%
    05:00 +2°C° 0.7 mm 10 m/s 752 mmHg 82%
    06:00 +2°C° 0.3 mm 9 m/s 753 mmHg 81%
    07:00 +2°C° 0.3 mm 9 m/s 753 mmHg 81%
    08:00 +1°C° 0.3 mm 8 m/s 754 mmHg 81%
    09:00 +2°C° 0.1 mm 8 m/s 755 mmHg 78%
    10:00 +2°C° 0.1 mm 8 m/s 755 mmHg 75%
    11:00 +4°C° 0.1 mm 8 m/s 756 mmHg 72%
    12:00 +4°C° 0.1 mm 7 m/s 756 mmHg 71%
    13:00 +5°C° 0.1 mm 7 m/s 756 mmHg 69%
    14:00 +5°C° 0.1 mm 7 m/s 756 mmHg 68%
    15:00 +5°C° 0 mm 6 m/s 757 mmHg 71%
    16:00 +4°C° 0 mm 6 m/s 757 mmHg 75%
    17:00 +3°C° 0 mm 5 m/s 757 mmHg 78%
    18:00 +3°C° 0 mm 5 m/s 758 mmHg 79%
    19:00 +2°C° 0 mm 5 m/s 758 mmHg 79%
    20:00 +1°C° 0 mm 5 m/s 759 mmHg 80%
    21:00 +1°C° 0 mm 5 m/s 759 mmHg 79%
    22:00 +1°C° 0 mm 5 m/s 759 mmHg 77%
    23:00 +1°C° 0 mm 5 m/s 759 mmHg 76%

    Depois de amanhã, 12 Dezembro, Quarta-feira

    Tempo Temperatura Precipitação Vento Pressão Humidade
    00:00 0°C° 0 mm 5 m/s 759 mmHg 77%
    01:00 0°C° 0 mm 5 m/s 759 mmHg 77%
    02:00 0°C° 0 mm 5 m/s 759 mmHg 78%
    03:00 0°C° 0 mm 5 m/s 759 mmHg 78%
    04:00 0°C° 0 mm 5 m/s 759 mmHg 77%
    05:00 -1°C° 0 mm 5 m/s 759 mmHg 77%
    06:00 -1°C° 0 mm 5 m/s 760 mmHg 76%
    07:00 -1°C° 0 mm 5 m/s 760 mmHg 75%
    08:00 -1°C° 0 mm 5 m/s 760 mmHg 75%
    09:00 +1°C° 0 mm 5 m/s 761 mmHg 69%
    10:00 +2°C° 0 mm 6 m/s 761 mmHg 64%
    11:00 +3°C° 0 mm 6 m/s 761 mmHg 59%
    12:00 +4°C° 0 mm 6 m/s 761 mmHg 57%
    13:00 +4°C° 0 mm 6 m/s 761 mmHg 56%
    14:00 +4°C° 0 mm 6 m/s 761 mmHg 55%
    15:00 +3°C° 0 mm 6 m/s 761 mmHg 60%
    16:00 +2°C° 0 mm 5 m/s 761 mmHg 65%
    17:00 +1°C° 0 mm 5 m/s 761 mmHg 70%
    18:00 +1°C° 0 mm 4 m/s 761 mmHg 70%
    19:00 +1°C° 0 mm 4 m/s 762 mmHg 69%
    20:00 0°C° 0 mm 4 m/s 762 mmHg 69%
    21:00 0°C° 0 mm 4 m/s 762 mmHg 70%
    22:00 0°C° 0 mm 4 m/s 762 mmHg 71%
    23:00 0°C° 0 mm 5 m/s 762 mmHg 71%

    13 Dezembro, Quinta-feira

    Tempo Temperatura Precipitação Vento Pressão Humidade
    00:00 0°C° 0 mm 5 m/s 762 mmHg 73%
    01:00 0°C° 0 mm 5 m/s 762 mmHg 75%
    02:00 0°C° 0 mm 5 m/s 762 mmHg 77%
    03:00 0°C° 0 mm 5 m/s 762 mmHg 77%
    04:00 0°C° 0 mm 5 m/s 762 mmHg 77%
    05:00 0°C° 0 mm 5 m/s 762 mmHg 78%
    06:00 0°C° 0 mm 4 m/s 763 mmHg 77%
    07:00 0°C° 0 mm 4 m/s 763 mmHg 76%
    08:00 0°C° 0 mm 4 m/s 763 mmHg 75%
    09:00 +3°C° 0 mm 4 m/s 763 mmHg 70%
    10:00 +4°C° 0 mm 4 m/s 763 mmHg 64%
    11:00 +6°C° 0 mm 4 m/s 763 mmHg 58%
    12:00 +6°C° 0 mm 5 m/s 763 mmHg 58%
    13:00 +7°C° 0 mm 5 m/s 762 mmHg 57%
    14:00 +7°C° 0 mm 5 m/s 762 mmHg 57%
    15:00 +6°C° 0 mm 5 m/s 762 mmHg 65%
    16:00 +5°C° 0 mm 5 m/s 762 mmHg 72%
    17:00 +3°C° 0 mm 5 m/s 762 mmHg 80%
    18:00 +3°C° 0 mm 5 m/s 762 mmHg 79%
    19:00 +3°C° 0 mm 5 m/s 762 mmHg 78%
    20:00 +3°C° 0 mm 5 m/s 762 mmHg 77%
    21:00 +3°C° 0 mm 4 m/s 762 mmHg 77%
    22:00 +3°C° 0 mm 4 m/s 762 mmHg 78%
    23:00 +3°C° 0 mm 4 m/s 761 mmHg 79%

    14 Dezembro, Sexta-feira

    Tempo Temperatura Precipitação Vento Pressão Humidade
    00:00 +3°C° 0 mm 3 m/s 761 mmHg 80%
    01:00 +3°C° 0 mm 3 m/s 761 mmHg 81%
    02:00 +4°C° 0 mm 2 m/s 760 mmHg 82%
    03:00 +4°C° 0.1 mm 2 m/s 760 mmHg 84%
    04:00 +5°C° 0.1 mm 2 m/s 760 mmHg 87%
    05:00 +5°C° 0.1 mm 2 m/s 759 mmHg 90%
    06:00 +5°C° 0.6 mm 2 m/s 759 mmHg 92%
    07:00 +5°C° 0.6 mm 2 m/s 759 mmHg 94%
    08:00 +5°C° 0.6 mm 2 m/s 759 mmHg 95%
    09:00 +6°C° 0.5 mm 2 m/s 759 mmHg 92%
    10:00 +7°C° 0.5 mm 2 m/s 759 mmHg 89%
    11:00 +8°C° 0.5 mm 2 m/s 759 mmHg 86%
    12:00 +8°C° 0 mm 2 m/s 759 mmHg 85%
    13:00 +10°C° 0 mm 1 m/s 758 mmHg 84%
    14:00 +10°C° 0 mm 1 m/s 758 mmHg 84%
    15:00 +8°C° 0.2 mm 2 m/s 757 mmHg 88%
    16:00 +8°C° 0.2 mm 2 m/s 757 mmHg 92%
    17:00 +7°C° 0.2 mm 3 m/s 756 mmHg 96%
    18:00 +7°C° 1.6 mm 3 m/s 756 mmHg 96%
    19:00 +7°C° 1.6 mm 3 m/s 756 mmHg 96%
    20:00 +7°C° 1.6 mm 3 m/s 755 mmHg 97%
    21:00 +6°C° 1.4 mm 4 m/s 755 mmHg 96%
    22:00 +6°C° 1.4 mm 5 m/s 754 mmHg 96%
    23:00 +5°C° 1.4 mm 6 m/s 754 mmHg 96%

    15 Dezembro, Sábado

    Tempo Temperatura Precipitação Vento Pressão Humidade
    00:00 +5°C° 2.2 mm 6 m/s 753 mmHg 96%
    01:00 +5°C° 2.2 mm 7 m/s 753 mmHg 96%
    02:00 +5°C° 2.2 mm 8 m/s 752 mmHg 96%
    03:00 +5°C° 1.2 mm 9 m/s 752 mmHg 95%
    04:00 +5°C° 1.2 mm 10 m/s 752 mmHg 94%
    05:00 +4°C° 1.2 mm 11 m/s 752 mmHg 93%
    06:00 +4°C° 0.6 mm 11 m/s 753 mmHg 92%
    07:00 +4°C° 0.6 mm 11 m/s 753 mmHg 91%
    08:00 +3°C° 0.6 mm 11 m/s 754 mmHg 90%
    09:00 +3°C° 0.7 mm 12 m/s 754 mmHg 89%
    10:00 +2°C° 0.7 mm 12 m/s 755 mmHg 88%
    11:00 0°C° 0.7 mm 12 m/s 756 mmHg 86%
    12:00 0°C° 0.4 mm 12 m/s 756 mmHg 84%
    13:00 +1°C° 0.4 mm 11 m/s 757 mmHg 82%
    14:00 -1°C° 0.4 mm 11 m/s 757 mmHg 80%
    15:00 0°C° 0 mm 10 m/s 758 mmHg 79%
    16:00 0°C° 0 mm 10 m/s 758 mmHg 79%
    17:00 -2°C° 0 mm 10 m/s 759 mmHg 78%
    18:00 -1°C° 0 mm 9 m/s 760 mmHg 78%
    19:00 -1°C° 0 mm 9 m/s 760 mmHg 78%
    20:00 -2°C° 0 mm 8 m/s 761 mmHg 78%
    21:00 -2°C° 0 mm 8 m/s 761 mmHg 78%
    22:00 -2°C° 0 mm 8 m/s 762 mmHg 78%
    23:00 -2°C° 0 mm 8 m/s 762 mmHg 78%
    Mostrar mais